This demonstration page uses our WeatherBlox Daily Observations layout. Learn more.

Left ArrowRight Arrow

Hourly Observations for October 6, 2022

Temp ( °F °C ) Dew Point ( °F °C ) Humidity (%) Winds ( mph kmh ) Pressure ( in mb ) Visibility ( mi km ) Precip ( " mm )
12:53 am 00:53 Partly Cloudy 49 9.4 39 3.9 68 68 E 22 35 30.34 1027 10 16 0.00 0.00
1:53 am 01:53 Partly Cloudy 47 8.3 39 3.9 74 74 E 23 37 30.35 1028 10 16 0.00 0.00
2:53 am 02:53 Mostly Cloudy 47 8.3 39 3.9 74 74 ENE 22 35 30.38 1029 10 16 0.00 0.00
3:53 am 03:53 Mostly Cloudy 45 7.2 38 3.3 76 76 E 20 31 30.39 1029 10 16 0.00 0.00
4:53 am 04:53 Cloudy 46 7.8 39 3.9 76 76 E 20 31 30.41 1030 10 16 0.00 0.00
5:53 am 05:53 Cloudy 46 7.8 39 3.9 76 76 E 20 31 30.42 1030 10 16 0.00 0.00
6:53 am 06:53 Cloudy 46 7.8 39 3.9 76 76 E 17 28 30.44 1031 10 16 0.00 0.00
7:53 am 07:53 Mostly Sunny 44 6.7 38 3.3 79 79 E 16 26 30.45 1031 10 16 0.00 0.00
8:53 am 08:53 Mostly Cloudy 44 6.7 38 3.3 79 79 E 14 22 30.49 1033 10 16 0.00 0.00
9:53 am 09:53 Cloudy 47 8.3 40 4.4 76 76 E 13 20 30.50 1033 10 16 0.00 0.00
10:53 am 10:53 Cloudy 51 10.6 41 5 68 68 ENE 13 20 30.50 1033 10 16 0.00 0.00
11:53 am 11:53 Sunny 54 12.2 41 5 61 61 NE 10 17 30.51 1033 10 16 0.00 0.00
12:53 pm 12:53 Sunny 55 12.8 40 4.4 57 57 E 7 11 30.50 1033 10 16 0.00 0.00
1:53 pm 13:53 Sunny 57 13.9 40 4.4 53 53 ENE 9 15 30.49 1033 10 16 0.00 0.00
2:53 pm 14:53 Sunny 59 15 40 4.4 49 49 ENE 14 22 30.48 1032 10 16 0.00 0.00
3:53 pm 15:53 Sunny 59 15 40 4.4 49 49 ENE 12 19 30.48 1032 10 16 0.00 0.00
4:53 pm 16:53 Sunny 58 14.4 40 4.4 51 51 E 12 19 30.46 1032 10 16 0.00 0.00
5:53 pm 17:53 Sunny 55 12.8 40 4.4 57 57 E 14 22 30.46 1032 10 16 0.00 0.00
6:53 pm 18:53 Clear 51 10.6 39 3.9 63 63 ENE 14 22 30.46 1032 10 16 0.00 0.00
7:53 pm 19:53 Clear 48 8.9 39 3.9 71 71 ENE 10 17 30.48 1032 10 16 0.00 0.00
8:53 pm 20:53 Clear 45 7.2 36 2.2 70 70 ENE 13 20 30.48 1032 10 16 0.00 0.00
9:53 pm 21:53 Clear 43 6.1 34 1.1 70 70 E 10 17 30.48 1032 10 16 0.00 0.00
10:53 pm 22:53 Clear 41 5 34 1.1 76 76 E 7 11 30.48 1032 10 16 0.00 0.00
11:53 pm 23:53 Clear 39 3.9 33 0.6 79 79 Calm 30.48 1032 10 16 0.00 0.00

Powered by AerisWeather